Regional Weather Roundup
Issued by NWS Newport/Morehead, NC

Current Version | Previous Version | Graphics & Text | Print | Product List | Glossary On
Versions: 1 2 3 4 5 6 7 8 9 10 11 12 13 14 15 16 17 18 19 20 21 22 23 24 25 26 27 28 29 30 31 32 33 34 35 36 37 38 39 40 41 42 43 44 45 46 47 48 49 50
000 ASUS42 KMHX 240313 RWRMHX WEATHER ROUNDUP FOR EASTERN NORTH CAROLINA NATIONAL WEATHER SERVICE NEWPORT/MOREHEAD CITY NC 1100 PM EDT TUE MAY 23 2017 NOTE: "FAIR" INDICATES FEW OR NO CLOUDS BELOW 12,000 FEET WITH NO SIGNIFICANT WEATHER AND/OR OBSTRUCTIONS TO VISIBILITY NCZ015>017-031-032-045>047-102-103-240400- NORTH COAST CITY SKY/WX TMP DP RH WIND PRES REMARKS EDENTON CLOUDY 73 69 88 SW10 29.67S ELIZABETH CITY CLOUDY 67 67 100 CALM 29.66S KITTY HAWK CLOUDY 70 70 100 SW9 29.65F MANTEO CLOUDY 71 68 92 SW16 29.67S $$ NCZ045>047-081-094-103-104-240400- CENTRAL COAST CITY SKY/WX TMP DP RH WIND PRES REMARKS FRISCO CLOUDY 74 70 87 SW14G23 29.70F $$ NCZ095-097-098-100-101-240400- SOUTHERN COAST CITY SKY/WX TMP DP RH WIND PRES REMARKS BEAUFORT LGT RAIN 74 72 93 SW18 29.71S CEDAR ISLAND NOT AVBL JACKSONVILLE CLOUDY 70 70 100 SW3 29.69F PINEY ISLAND LGT RAIN N/A N/A N/A S10 29.69F WILMINGTON CLOUDY 69 68 96 S7 29.70F $$ NCZ011>013-027>030-043-044-078>080-089-090>093-098-240400- COASTAL PLAIN CITY SKY/WX TMP DP RH WIND PRES REMARKS AHOSKIE N/A 62 61 97 NE3 29.69S CLINTON CLOUDY 68 68 100 CALM 29.69F ELIZABETHTOWN CLOUDY 70 70 100 S3 29.70S GOLDSBORO MOCLDY 69 69 100 SW6 29.67S GREENVILLE CLOUDY 70 70 100 SW7 29.71R HAVELOCK CLOUDY 72 68 87 S9 29.71S KENANSVILLE CLOUDY 68 68 100 SW5 29.70S KINSTON CLOUDY 69 69 97 SW7 29.69S NEW BERN LGT RAIN 69 69 100 S8 29.70S RICHLANDS CLOUDY 69 68 96 SW6 29.70R ROCKY MOUNT LGT RAIN 65 65 100 N8 29.68F WASHINGTON CLOUDY 69 67 96 SW7 29.67F WHITEVILLE MOCLDY 68 67 95 S3 29.70R $$ AMZ130-135-150-152-154-156-158-170-250-252-270-ANZ085-086-088-633-658-670-240400- MARINE OBSERVATIONS STATION/POSITION TIME TEMP WIND PRES WAVE SWELL AIR SEA DIR/SP/G HT/PER HT/PER (UTC) (F) (DEG/KT/KT) (MB) (FT/S) (FT/S) CHESAPEAKE LIGHT NOT AVBL 64 E VA BEACH 0250 68 66 210/ 14/ 16 1004.6 4/ 7 3/ 7 DUCK 0248 71 62 210/ 14/ 18 1003.8 2 E DUCK 0230 65 N/A 3/ 7 2/13 OREGON INLET 0242 72 68 210/ 19/ 23 1004.6 13E OREGON INLT 0248 65 N/A 7/ 7 2/11 HATTERAS CG 0248 73 74 210/ 14/ 19 1005.5 DIAMOND BUOY 0250 76 75 210/ 16/ 17 1006.3 6/ 5 CAPE LOOKOUT 0300 73 210/ 13/ 18 1005.8 BEAUFORT LAB 0248 74 73 210/ 15/ 20 1005.0 30 SE NEW RVR IN 0208 73 76 240/ 16/ 19 1007.5 30 SE NEW RVR IN 0243 76 N/A 6/ 7 27 SE WRIGHTSVLE 0208 73 75 220/ 14/ 21 1006.9 5 SE WRIGHTSVLE 0208 72 74 210/ 10/ 17 1005.8 225 S CAPE HAT 0250 77 76 190/ 21/ 27 1011.8 7/ 6 2/12 41 SE CHARLESTON 0250 78 78 210/ 17/ 23 1006.8 7/ 6 $$

USA.gov is the U.S. government's official web portal to all federal, state and local government web resources and services.